Starlink 30844

operational
NORAD ID: 58403 Int'l Des: 2023-180 Owner: SPXS Country: US Constellation: starlink
LEOCIRCULAR

关于 Starlink 30844

正在加载描述...

实时位置

正在加载3D地球...

即将过境

高度历史

Altitude vs Time

uPlot chart will show altitude changes over time

两行轨道根数

1 58403U 23180B 25352.41106089 .00000075 00000-0 20663-4 0 9993
2 58403 43.0028 138.1069 0001341 267.6023 92.4666 15.02533508115240
Epoch: Dec 18, 2025 • Age: 15 hours

当前状态

高度 568.9 km
速度 7.58 km/s
星下点 -36.54°S, 100.43°W
发射日期 Nov 22, 2023
运行时间 2 years
类型 internet

技术详情

分类 Payload
质量 730.00 kg
干质量 700.00 kg
总质量 730.00 kg
长度 0.30 m
直径 4.10 m
跨度 29.00 m
形状 Box + pan
制造商 SPXS
平台类型 Starlink V2M
阶段状态 In Orbit
所有者/国家 SPXS/US

大型星座

Loading constellations...